Time,TemperatureF,DewpointF,PressureIn,WindDirection,WindDirectionDegrees,WindSpeedMPH,WindSpeedGustMPH,Humidity,HourlyPrecipIn,Conditions,Clouds,dailyrainin,SoftwareType,DateUTC
2013-06-12 00:02:00,66.7,49.1,29.15,WNW,293,2.1,4.9,53,-99.99,,,-99.99,WSDL version 342,2013-06-12 04:02:00,
2013-06-12 00:03:00,66.7,49.1,29.15,WNW,289,3.0,5.8,53,-99.99,,,-99.99,WSDL version 342,2013-06-12 04:03:00,
2013-06-12 00:04:00,66.7,49.1,29.15,WNW,289,2.8,5.8,53,-99.99,,,-99.99,WSDL version 342,2013-06-12 04:04:00,
2013-06-12 00:07:00,66.7,49.1,29.15,WNW,288,2.6,5.8,53,-99.99,,,-99.99,WSDL version 342,2013-06-12 04:07:00,
2013-06-12 00:12:00,66.7,49.1,29.15,WNW,285,2.7,5.8,53,-99.99,,,-99.99,WSDL version 342,2013-06-12 04:12:00,
2013-06-12 00:17:00,66.7,49.1,29.15,NW,304,3.0,5.8,53,-99.99,,,-99.99,WSDL version 342,2013-06-12 04:17:00,
2013-06-12 00:22:00,66.7,49.1,29.18,West,264,3.4,5.8,53,-99.99,,,-99.99,WSDL version 342,2013-06-12 04:22:00,
2013-06-12 00:27:00,66.7,49.0,29.18,WNW,293,2.7,4.0,53,-99.99,,,-99.99,WSDL version 342,2013-06-12 04:27:00,
2013-06-12 00:32:00,66.6,48.9,29.18,NW,305,2.4,4.0,53,-99.99,,,-99.99,WSDL version 342,2013-06-12 04:32:00,
2013-06-12 00:37:00,66.6,49.2,29.18,NW,315,2.9,5.4,53,-99.99,,,-99.99,WSDL version 342,2013-06-12 04:37:00,
2013-06-12 00:42:00,66.4,48.8,29.18,SW,236,2.5,5.4,53,-99.99,,,-99.99,WSDL version 342,2013-06-12 04:42:00,
2013-06-12 00:47:00,66.3,48.9,29.18,West,279,3.3,5.8,54,-99.99,,,-99.99,WSDL version 342,2013-06-12 04:47:00,
2013-06-12 00:52:00,66.1,48.8,29.18,WNW,295,2.4,5.8,54,-99.99,,,-99.99,WSDL version 342,2013-06-12 04:52:00,
2013-06-12 00:57:00,66.0,48.9,29.18,WNW,293,2.1,4.0,54,-99.99,,,-99.99,WSDL version 342,2013-06-12 04:57:00,
2013-06-12 01:02:00,65.9,48.9,29.18,West,264,2.1,5.4,54,-99.99,,,-99.99,WSDL version 342,2013-06-12 05:02:00,
2013-06-12 01:07:00,65.8,48.8,29.18,West,270,2.1,5.4,54,-99.99,,,-99.99,WSDL version 342,2013-06-12 05:07:00,
2013-06-12 01:12:00,65.8,48.7,29.18,WNW,293,2.4,6.0,54,-99.99,,,-99.99,WSDL version 342,2013-06-12 05:12:00,
2013-06-12 01:17:00,65.7,48.6,29.18,WSW,257,2.1,6.0,54,-99.99,,,-99.99,WSDL version 342,2013-06-12 05:17:00,
2013-06-12 01:22:00,65.6,48.8,29.18,WNW,296,3.6,5.4,55,-99.99,,,-99.99,WSDL version 342,2013-06-12 05:22:00,
2013-06-12 01:27:00,65.6,48.9,29.18,NNW,332,3.9,6.0,55,-99.99,,,-99.99,WSDL version 342,2013-06-12 05:27:00,
2013-06-12 01:33:00,65.5,48.5,29.18,NW,307,2.4,6.0,54,-99.99,,,-99.99,WSDL version 342,2013-06-12 05:33:00,
2013-06-12 01:38:00,65.4,48.9,29.15,WNW,296,2.3,4.9,55,-99.99,,,-99.99,WSDL version 342,2013-06-12 05:38:00,
2013-06-12 01:43:00,65.3,48.6,29.15,WNW,300,2.1,4.7,54,-99.99,,,-99.99,WSDL version 342,2013-06-12 05:43:00,
2013-06-12 01:48:00,65.2,48.4,29.15,NW,312,1.6,5.6,55,-99.99,,,-99.99,WSDL version 342,2013-06-12 05:48:00,
2013-06-12 01:53:00,65.1,48.5,29.15,WSW,254,1.6,5.6,55,-99.99,,,-99.99,WSDL version 342,2013-06-12 05:53:00,
2013-06-12 01:58:00,65.0,48.5,29.15,West,267,3.5,4.7,55,-99.99,,,-99.99,WSDL version 342,2013-06-12 05:58:00,
2013-06-12 02:03:00,65.1,48.3,29.15,WNW,288,2.4,4.7,54,-99.99,,,-99.99,WSDL version 342,2013-06-12 06:03:00,
2013-06-12 02:08:00,65.0,48.1,29.18,West,273,2.8,5.4,55,-99.99,,,-99.99,WSDL version 342,2013-06-12 06:08:00,
2013-06-12 02:13:00,65.0,48.1,29.18,West,281,3.0,8.5,54,-99.99,,,-99.99,WSDL version 342,2013-06-12 06:13:00,
2013-06-12 02:18:00,65.1,48.0,29.18,West,260,2.7,8.5,54,-99.99,,,-99.99,WSDL version 342,2013-06-12 06:18:00,
2013-06-12 02:24:00,64.9,47.9,29.18,WNW,296,2.7,4.9,54,-99.99,,,-99.99,WSDL version 342,2013-06-12 06:24:00,
2013-06-12 02:29:00,64.8,47.9,29.18,West,278,2.8,4.0,55,-99.99,,,-99.99,WSDL version 342,2013-06-12 06:29:00,
2013-06-12 02:34:00,64.8,47.9,29.18,WSW,244,2.5,6.0,54,-99.99,,,-99.99,WSDL version 342,2013-06-12 06:34:00,
2013-06-12 02:39:00,64.9,47.8,29.18,West,281,3.0,6.0,54,-99.99,,,-99.99,WSDL version 342,2013-06-12 06:39:00,
2013-06-12 02:44:00,64.8,47.7,29.18,West,279,2.8,4.0,54,-99.99,,,-99.99,WSDL version 342,2013-06-12 06:44:00,
2013-06-12 02:49:00,64.8,48.0,29.18,West,259,3.0,4.0,55,-99.99,,,-99.99,WSDL version 342,2013-06-12 06:49:00,
2013-06-12 02:54:00,64.8,48.0,29.15,WNW,299,2.6,4.0,54,-99.99,,,-99.99,WSDL version 342,2013-06-12 06:54:00,
2013-06-12 02:59:00,64.8,47.7,29.15,NNW,338,2.7,4.0,54,-99.99,,,-99.99,WSDL version 342,2013-06-12 06:59:00,
2013-06-12 03:04:00,64.8,47.7,29.15,NW,305,2.6,4.0,54,-99.99,,,-99.99,WSDL version 342,2013-06-12 07:04:00,
2013-06-12 03:09:00,64.8,47.7,29.15,WNW,293,3.4,8.1,54,-99.99,,,-99.99,WSDL version 342,2013-06-12 07:09:00,
2013-06-12 03:14:00,64.8,47.4,29.15,WNW,302,3.0,8.1,53,-99.99,,,-99.99,WSDL version 342,2013-06-12 07:14:00,
2013-06-12 03:21:00,64.8,47.7,29.15,NNW,338,2.8,6.5,54,-99.99,,,-99.99,WSDL version 342,2013-06-12 07:21:00,
2013-06-12 03:26:00,64.5,47.7,29.18,WNW,298,3.0,6.0,55,-99.99,,,-99.99,WSDL version 342,2013-06-12 07:26:00,
2013-06-12 03:32:00,64.4,47.9,29.18,WNW,283,3.2,4.9,55,-99.99,,,-99.99,WSDL version 342,2013-06-12 07:32:00,
2013-06-12 03:37:00,64.3,47.8,29.18,WNW,290,2.3,4.9,55,-99.99,,,-99.99,WSDL version 342,2013-06-12 07:37:00,
2013-06-12 03:42:00,64.2,48.2,29.15,WNW,295,2.0,6.5,56,-99.99,,,-99.99,WSDL version 342,2013-06-12 07:42:00,
2013-06-12 03:47:00,64.1,48.6,29.15,NW,318,3.3,7.2,57,-99.99,,,-99.99,WSDL version 342,2013-06-12 07:47:00,
2013-06-12 03:52:00,64.2,48.6,29.15,WNW,285,2.5,7.2,57,-99.99,,,-99.99,WSDL version 342,2013-06-12 07:52:00,
2013-06-12 03:57:00,64.0,48.6,29.15,WNW,295,3.0,5.6,58,-99.99,,,-99.99,WSDL version 342,2013-06-12 07:57:00,
2013-06-12 04:02:00,64.0,49.0,29.15,West,270,2.8,4.9,58,-99.99,,,-99.99,WSDL version 342,2013-06-12 08:02:00,
2013-06-12 04:07:00,63.9,48.8,29.18,West,281,2.5,3.8,58,-99.99,,,-99.99,WSDL version 342,2013-06-12 08:07:00,
2013-06-12 04:12:00,64.0,48.9,29.18,WNW,290,2.6,4.3,58,-99.99,,,-99.99,WSDL version 342,2013-06-12 08:12:00,
2013-06-12 04:17:00,63.9,49.2,29.18,WNW,284,2.7,4.3,59,-99.99,,,-99.99,WSDL version 342,2013-06-12 08:17:00,
2013-06-12 04:23:00,63.9,49.3,29.18,North,360,2.7,5.4,59,-99.99,,,-99.99,WSDL version 342,2013-06-12 08:23:00,
2013-06-12 04:28:00,63.9,49.3,29.21,WNW,284,3.2,5.4,59,-99.99,,,-99.99,WSDL version 342,2013-06-12 08:28:00,
2013-06-12 04:33:00,63.9,49.3,29.21,WNW,286,2.7,4.3,59,-99.99,,,-99.99,WSDL version 342,2013-06-12 08:33:00,
2013-06-12 04:38:00,63.7,49.1,29.21,WNW,299,2.3,3.6,59,-99.99,,,-99.99,WSDL version 342,2013-06-12 08:38:00,
2013-06-12 04:43:00,63.5,49.0,29.21,NW,323,2.9,4.0,60,-99.99,,,-99.99,WSDL version 342,2013-06-12 08:43:00,
2013-06-12 04:48:00,63.5,49.5,29.21,West,281,3.4,4.3,60,-99.99,,,-99.99,WSDL version 342,2013-06-12 08:48:00,
2013-06-12 04:53:00,63.5,49.7,29.18,WNW,284,3.0,4.3,61,-99.99,,,-99.99,WSDL version 342,2013-06-12 08:53:00,
2013-06-12 04:58:00,63.4,49.7,29.18,WNW,285,2.3,4.3,61,-99.99,,,-99.99,WSDL version 342,2013-06-12 08:58:00,
2013-06-12 05:03:00,63.3,49.7,29.18,NW,315,2.5,4.3,61,-99.99,,,-99.99,WSDL version 342,2013-06-12 09:03:00,
2013-06-12 05:08:00,63.1,49.6,29.21,West,273,2.2,3.6,62,-99.99,,,-99.99,WSDL version 342,2013-06-12 09:08:00,
2013-06-12 05:13:00,63.3,50.0,29.21,West,260,2.9,3.6,62,-99.99,,,-99.99,WSDL version 342,2013-06-12 09:13:00,
2013-06-12 05:18:00,63.3,50.1,29.21,WNW,296,2.4,3.6,62,-99.99,,,-99.99,WSDL version 342,2013-06-12 09:18:00,
2013-06-12 05:23:00,63.3,50.1,29.21,WNW,296,2.4,3.1,62,-99.99,,,-99.99,WSDL version 342,2013-06-12 09:23:00,
2013-06-12 05:28:00,63.1,49.9,29.21,West,267,2.5,4.0,62,-99.99,,,-99.99,WSDL version 342,2013-06-12 09:28:00,
2013-06-12 05:33:00,63.1,49.9,29.21,West,276,2.3,4.0,62,-99.99,,,-99.99,WSDL version 342,2013-06-12 09:33:00,
2013-06-12 05:38:00,63.0,50.0,29.21,West,281,2.5,3.6,63,-99.99,,,-99.99,WSDL version 342,2013-06-12 09:38:00,
2013-06-12 05:43:00,63.1,50.5,29.21,WNW,290,2.7,4.0,64,-99.99,,,-99.99,WSDL version 342,2013-06-12 09:43:00,
2013-06-12 05:48:00,63.1,50.7,29.21,North,11,2.7,4.3,64,-99.99,,,-99.99,WSDL version 342,2013-06-12 09:48:00,
2013-06-12 05:53:00,63.1,50.8,29.18,WNW,293,2.6,5.8,64,-99.99,,,-99.99,WSDL version 342,2013-06-12 09:53:00,
2013-06-12 05:58:00,63.2,50.8,29.18,West,262,2.8,5.8,64,-99.99,,,-99.99,WSDL version 342,2013-06-12 09:58:00,
2013-06-12 06:03:00,63.2,50.8,29.18,West,273,2.6,4.9,64,-99.99,,,-99.99,WSDL version 342,2013-06-12 10:03:00,
2013-06-12 06:08:00,63.2,50.8,29.21,WNW,289,2.2,3.6,64,-99.99,,,-99.99,WSDL version 342,2013-06-12 10:08:00,
2013-06-12 06:13:00,63.1,50.8,29.21,West,262,1.6,3.6,64,-99.99,,,-99.99,WSDL version 342,2013-06-12 10:13:00,
2013-06-12 06:18:00,63.1,50.7,29.21,West,276,2.3,3.1,64,-99.99,,,-99.99,WSDL version 342,2013-06-12 10:18:00,
2013-06-12 06:23:00,63.1,50.7,29.21,WSW,248,1.7,3.1,64,-99.99,,,-99.99,WSDL version 342,2013-06-12 10:23:00,
2013-06-12 06:28:00,63.1,51.2,29.21,WNW,300,2.0,4.0,65,-99.99,,,-99.99,WSDL version 342,2013-06-12 10:28:00,
2013-06-12 06:33:00,63.1,51.3,29.21,WSW,244,2.2,4.0,66,-99.99,,,-99.99,WSDL version 342,2013-06-12 10:33:00,
2013-06-12 06:38:00,63.3,51.8,29.23,NW,309,3.1,4.9,66,-99.99,,,-99.99,WSDL version 342,2013-06-12 10:38:00,
2013-06-12 06:43:00,63.5,52.0,29.23,WNW,293,2.5,4.9,66,-99.99,,,-99.99,WSDL version 342,2013-06-12 10:43:00,
2013-06-12 06:48:00,63.5,51.5,29.23,WNW,283,2.1,4.3,65,-99.99,,,-99.99,WSDL version 342,2013-06-12 10:48:00,
2013-06-12 06:54:00,63.5,50.9,29.23,WNW,289,3.0,5.8,63,-99.99,,,-99.99,WSDL version 342,2013-06-12 10:54:00,
2013-06-12 06:59:00,63.6,50.2,29.23,West,278,2.2,5.8,61,-99.99,,,-99.99,WSDL version 342,2013-06-12 10:59:00,
2013-06-12 07:04:00,63.7,47.7,29.23,NW,315,3.1,4.3,54,-99.99,,,-99.99,WSDL version 342,2013-06-12 11:04:00,
2013-06-12 07:09:00,63.8,43.4,29.23,West,270,3.0,6.0,46,-99.99,,,-99.99,WSDL version 342,2013-06-12 11:09:00,
2013-06-12 07:14:00,63.7,42.1,29.23,West,279,2.7,6.0,45,-99.99,,,-99.99,WSDL version 342,2013-06-12 11:14:00,
2013-06-12 07:19:00,63.6,42.2,29.23,NW,306,2.4,5.4,46,-99.99,,,-99.99,WSDL version 342,2013-06-12 11:19:00,
2013-06-12 07:24:00,63.5,42.3,29.26,WNW,302,2.5,4.3,46,-99.99,,,-99.99,WSDL version 342,2013-06-12 11:24:00,
2013-06-12 07:29:00,63.9,42.4,29.26,WSW,248,3.1,4.3,45,-99.99,,,-99.99,WSDL version 342,2013-06-12 11:29:00,
2013-06-12 07:34:00,64.2,42.3,29.26,WNW,293,2.6,4.3,44,-99.99,,,-99.99,WSDL version 342,2013-06-12 11:34:00,
2013-06-12 07:39:00,64.2,41.6,29.26,WNW,293,2.0,4.0,44,-99.99,,,-99.99,WSDL version 342,2013-06-12 11:39:00,
2013-06-12 07:44:00,64.6,42.2,29.26,WNW,296,2.4,4.0,44,-99.99,,,-99.99,WSDL version 342,2013-06-12 11:44:00,
2013-06-12 07:49:00,65.4,41.8,29.26,West,278,3.2,5.8,40,-99.99,,,-99.99,WSDL version 342,2013-06-12 11:49:00,
2013-06-12 07:55:00,66.1,39.9,29.26,WNW,284,2.9,5.8,37,-99.99,,,-99.99,WSDL version 342,2013-06-12 11:55:00,
2013-06-12 08:00:00,66.3,39.3,29.26,West,276,3.3,6.0,36,-99.99,,,-99.99,WSDL version 342,2013-06-12 12:00:00,
2013-06-12 08:05:00,66.2,37.4,29.26,WNW,296,4.0,9.8,34,-99.99,,,-99.99,WSDL version 342,2013-06-12 12:05:00,
2013-06-12 08:10:00,66.1,37.7,29.26,NW,308,3.5,9.8,36,-99.99,,,-99.99,WSDL version 342,2013-06-12 12:10:00,
2013-06-12 08:15:00,66.0,38.1,29.26,West,278,3.3,5.8,36,-99.99,,,-99.99,WSDL version 342,2013-06-12 12:15:00,
2013-06-12 08:20:00,66.0,39.2,29.26,WNW,285,3.1,8.5,38,-99.99,,,-99.99,WSDL version 342,2013-06-12 12:20:00,
2013-06-12 08:25:00,66.0,39.2,29.26,WSW,248,3.4,8.5,36,-99.99,,,-99.99,WSDL version 342,2013-06-12 12:25:00,
2013-06-12 08:30:00,66.2,38.5,29.26,WNW,288,3.5,7.6,36,-99.99,,,-99.99,WSDL version 342,2013-06-12 12:30:00,
2013-06-12 08:35:00,66.1,39.0,29.26,NW,307,3.4,5.6,37,-99.99,,,-99.99,WSDL version 342,2013-06-12 12:35:00,
2013-06-12 08:40:00,65.8,37.6,29.26,West,260,3.7,5.8,35,-99.99,,,-99.99,WSDL version 342,2013-06-12 12:40:00,
2013-06-12 08:45:00,65.9,37.5,29.26,NW,326,3.8,5.8,35,-99.99,,,-99.99,WSDL version 342,2013-06-12 12:45:00,
2013-06-12 08:50:00,66.2,37.7,29.26,WNW,288,4.1,6.9,35,-99.99,,,-99.99,WSDL version 342,2013-06-12 12:50:00,
2013-06-12 08:55:00,66.3,37.5,29.26,WNW,283,3.6,6.9,35,-99.99,,,-99.99,WSDL version 342,2013-06-12 12:55:00,
2013-06-12 09:00:00,66.2,37.0,29.26,WNW,289,4.4,10.1,34,-99.99,,,-99.99,WSDL version 342,2013-06-12 13:00:00,
2013-06-12 09:05:00,66.5,37.3,29.26,NW,321,3.9,10.1,34,-99.99,,,-99.99,WSDL version 342,2013-06-12 13:05:00,
2013-06-12 09:10:00,66.8,37.9,29.26,NW,305,3.4,5.8,35,-99.99,,,-99.99,WSDL version 342,2013-06-12 13:10:00,
2013-06-12 09:15:00,66.7,37.5,29.26,WNW,302,4.5,7.2,34,-99.99,,,-99.99,WSDL version 342,2013-06-12 13:15:00,
2013-06-12 09:20:00,66.6,37.4,29.26,West,267,3.2,7.8,34,-99.99,,,-99.99,WSDL version 342,2013-06-12 13:20:00,
2013-06-12 09:25:00,66.2,37.2,29.23,WNW,297,3.5,8.7,35,-99.99,,,-99.99,WSDL version 342,2013-06-12 13:25:00,
2013-06-12 09:30:00,66.1,37.7,29.23,WNW,293,2.6,8.7,35,-99.99,,,-99.99,WSDL version 342,2013-06-12 13:30:00,
2013-06-12 09:35:00,66.6,38.7,29.23,WNW,293,2.7,6.0,36,-99.99,,,-99.99,WSDL version 342,2013-06-12 13:35:00,
2013-06-12 09:40:00,66.9,38.9,29.26,WNW,285,3.6,6.0,36,-99.99,,,-99.99,WSDL version 342,2013-06-12 13:40:00,
2013-06-12 09:45:00,67.2,38.7,29.26,NW,315,4.1,6.0,35,-99.99,,,-99.99,WSDL version 342,2013-06-12 13:45:00,
2013-06-12 09:50:00,67.3,38.3,29.26,NNW,330,4.0,6.5,34,-99.99,,,-99.99,WSDL version 342,2013-06-12 13:50:00,
2013-06-12 09:55:00,67.7,38.3,29.23,WNW,300,3.7,6.5,34,-99.99,,,-99.99,WSDL version 342,2013-06-12 13:55:00,
2013-06-12 10:00:00,68.2,39.2,29.23,NNW,330,2.9,6.5,35,-99.99,,,-99.99,WSDL version 342,2013-06-12 14:00:00,
2013-06-12 10:05:00,68.8,39.5,29.23,WNW,300,2.5,4.9,33,-99.99,,,-99.99,WSDL version 342,2013-06-12 14:05:00,
2013-06-12 10:10:00,69.1,38.4,29.23,NW,311,4.0,6.3,32,-99.99,,,-99.99,WSDL version 342,2013-06-12 14:10:00,
2013-06-12 10:15:00,69.2,38.7,29.23,NW,312,3.7,6.3,33,-99.99,,,-99.99,WSDL version 342,2013-06-12 14:15:00,
2013-06-12 10:20:00,69.5,39.0,29.23,NW,323,3.0,6.0,33,-99.99,,,-99.99,WSDL version 342,2013-06-12 14:20:00,
2013-06-12 10:25:00,69.7,38.0,29.23,NW,315,4.8,6.5,30,-99.99,,,-99.99,WSDL version 342,2013-06-12 14:25:00,
2013-06-12 10:30:00,69.8,38.4,29.23,NW,315,3.6,6.5,32,-99.99,,,-99.99,WSDL version 342,2013-06-12 14:30:00,
2013-06-12 10:35:00,70.2,39.0,29.23,NW,311,2.9,6.3,32,-99.99,,,-99.99,WSDL version 342,2013-06-12 14:35:00,
2013-06-12 10:40:00,70.5,37.3,29.23,NNW,338,2.2,6.3,28,-99.99,,,-99.99,WSDL version 342,2013-06-12 14:40:00,
2013-06-12 10:45:00,70.5,36.8,29.23,NNW,342,4.0,5.8,29,-99.99,,,-99.99,WSDL version 342,2013-06-12 14:45:00,
2013-06-12 10:50:00,70.7,36.3,29.23,NW,315,3.4,6.5,29,-99.99,,,-99.99,WSDL version 342,2013-06-12 14:50:00,
2013-06-12 10:55:00,70.9,36.2,29.23,West,275,4.6,7.8,26,-99.99,,,-99.99,WSDL version 342,2013-06-12 14:55:00,
2013-06-12 11:00:00,71.2,35.7,29.23,WNW,293,4.3,10.3,27,-99.99,,,-99.99,WSDL version 342,2013-06-12 15:00:00,
2013-06-12 11:05:00,71.3,33.9,29.23,WNW,285,4.8,10.3,25,-99.99,,,-99.99,WSDL version 342,2013-06-12 15:05:00,
2013-06-12 11:10:00,71.5,34.8,29.23,NW,312,4.2,10.1,27,-99.99,,,-99.99,WSDL version 342,2013-06-12 15:10:00,
2013-06-12 11:16:00,71.9,34.7,29.23,West,270,3.8,10.1,25,-99.99,,,-99.99,WSDL version 342,2013-06-12 15:16:00,
2013-06-12 11:21:00,72.5,35.5,29.23,WNW,289,4.0,7.6,26,-99.99,,,-99.99,WSDL version 342,2013-06-12 15:21:00,
2013-06-12 11:26:00,72.7,34.9,29.23,West,266,4.0,6.9,25,-99.99,,,-99.99,WSDL version 342,2013-06-12 15:26:00,
2013-06-12 11:31:00,73.3,35.4,29.23,West,276,4.1,6.5,24,-99.99,,,-99.99,WSDL version 342,2013-06-12 15:31:00,
2013-06-12 11:36:00,73.9,34.5,29.23,West,275,4.4,8.1,23,-99.99,,,-99.99,WSDL version 342,2013-06-12 15:36:00,
2013-06-12 11:41:00,74.2,34.1,29.23,SW,231,3.5,8.1,23,-99.99,,,-99.99,WSDL version 342,2013-06-12 15:41:00,
2013-06-12 11:46:00,75.1,35.6,29.23,WNW,300,2.5,7.6,24,-99.99,,,-99.99,WSDL version 342,2013-06-12 15:46:00,
2013-06-12 11:51:00,75.6,35.6,29.23,NW,326,3.1,4.3,23,-99.99,,,-99.99,WSDL version 342,2013-06-12 15:51:00,
2013-06-12 11:56:00,75.7,34.4,29.23,West,279,2.8,6.5,22,-99.99,,,-99.99,WSDL version 342,2013-06-12 15:56:00,
2013-06-12 12:01:00,75.9,34.4,29.23,WNW,293,3.6,7.4,22,-99.99,,,-99.99,WSDL version 342,2013-06-12 16:01:00,
2013-06-12 12:06:00,76.5,35.2,29.23,West,270,3.0,7.4,22,-99.99,,,-99.99,WSDL version 342,2013-06-12 16:06:00,
2013-06-12 12:11:00,77.2,35.7,29.23,WNW,284,3.4,5.6,23,-99.99,,,-99.99,WSDL version 342,2013-06-12 16:11:00,
2013-06-12 12:17:00,77.3,34.8,29.23,WNW,302,3.8,5.4,21,-99.99,,,-99.99,WSDL version 342,2013-06-12 16:17:00,
2013-06-12 12:22:00,77.1,34.2,29.23,WNW,285,2.8,8.1,21,-99.99,,,-99.99,WSDL version 342,2013-06-12 16:22:00,
2013-06-12 12:27:00,77.7,34.7,29.26,WSW,248,3.2,8.1,21,-99.99,,,-99.99,WSDL version 342,2013-06-12 16:27:00,
2013-06-12 12:33:00,78.7,35.5,29.26,North,350,2.6,3.8,21,-99.99,,,-99.99,WSDL version 342,2013-06-12 16:33:00,
2013-06-12 12:38:00,79.4,36.1,29.26,North,360,3.2,4.9,21,-99.99,,,-99.99,WSDL version 342,2013-06-12 16:38:00,
2013-06-12 12:43:00,79.4,34.9,29.23,South,186,3.3,5.8,20,-99.99,,,-99.99,WSDL version 342,2013-06-12 16:43:00,
2013-06-12 12:48:00,79.7,35.1,29.23,WNW,288,3.4,9.4,20,-99.99,,,-99.99,WSDL version 342,2013-06-12 16:48:00,
2013-06-12 12:53:00,79.4,34.9,29.23,NNW,345,3.7,9.4,20,-99.99,,,-99.99,WSDL version 342,2013-06-12 16:53:00,
2013-06-12 12:58:00,80.4,35.7,29.23,WNW,293,2.4,9.4,20,-99.99,,,-99.99,WSDL version 342,2013-06-12 16:58:00,
2013-06-12 13:03:00,81.3,35.9,29.23,West,278,3.7,6.0,20,-99.99,,,-99.99,WSDL version 342,2013-06-12 17:03:00,
2013-06-12 13:08:00,81.6,35.7,29.26,West,280,3.4,7.6,19,-99.99,,,-99.99,WSDL version 342,2013-06-12 17:08:00,
2013-06-12 13:13:00,82.0,35.0,29.26,WNW,290,3.9,7.6,17,-99.99,,,-99.99,WSDL version 342,2013-06-12 17:13:00,
2013-06-12 13:18:00,81.5,33.1,29.26,NNW,342,4.0,6.3,17,-99.99,,,-99.99,WSDL version 342,2013-06-12 17:18:00,
2013-06-12 13:23:00,81.4,32.5,29.26,WNW,287,4.5,8.5,17,-99.99,,,-99.99,WSDL version 342,2013-06-12 17:23:00,
2013-06-12 13:28:00,81.6,32.6,29.26,SSW,210,4.5,11.0,17,-99.99,,,-99.99,WSDL version 342,2013-06-12 17:28:00,
2013-06-12 13:33:00,82.4,33.2,29.26,WNW,302,3.0,11.0,16,-99.99,,,-99.99,WSDL version 342,2013-06-12 17:33:00,
2013-06-12 13:38:00,82.3,32.8,29.26,WNW,288,3.2,5.6,17,-99.99,,,-99.99,WSDL version 342,2013-06-12 17:38:00,
2013-06-12 13:43:00,82.2,32.7,29.26,WNW,298,2.9,5.8,16,-99.99,,,-99.99,WSDL version 342,2013-06-12 17:43:00,
2013-06-12 13:48:00,82.5,35.4,29.26,NNE,19,3.2,6.0,19,-99.99,,,-99.99,WSDL version 342,2013-06-12 17:48:00,
2013-06-12 13:53:00,82.9,34.3,29.23,West,278,4.3,8.1,16,-99.99,,,-99.99,WSDL version 342,2013-06-12 17:53:00,
2013-06-12 13:58:00,83.1,32.3,29.23,WNW,293,3.0,9.4,16,-99.99,,,-99.99,WSDL version 342,2013-06-12 17:58:00,
2013-06-12 14:03:00,83.0,32.2,29.23,South,180,3.2,9.4,16,-99.99,,,-99.99,WSDL version 342,2013-06-12 18:03:00,
2013-06-12 14:08:00,84.0,33.0,29.23,East,96,3.1,5.4,16,-99.99,,,-99.99,WSDL version 342,2013-06-12 18:08:00,
2013-06-12 14:13:00,84.8,31.1,29.23,NNW,341,2.9,6.3,13,-99.99,,,-99.99,WSDL version 342,2013-06-12 18:13:00,
2013-06-12 14:18:00,85.6,34.4,29.23,WNW,283,2.3,6.3,16,-99.99,,,-99.99,WSDL version 342,2013-06-12 18:18:00,
2013-06-12 14:23:00,86.6,31.0,29.23,NW,315,3.3,11.9,15,-99.99,,,-99.99,WSDL version 342,2013-06-12 18:23:00,
2013-06-12 14:28:00,86.9,30.2,29.23,North,10,3.7,11.9,13,-99.99,,,-99.99,WSDL version 342,2013-06-12 18:28:00,
2013-06-12 14:33:00,87.0,30.3,29.23,NW,311,3.2,7.2,13,-99.99,,,-99.99,WSDL version 342,2013-06-12 18:33:00,
2013-06-12 14:38:00,85.4,29.0,29.23,West,276,2.9,7.2,13,-99.99,,,-99.99,WSDL version 342,2013-06-12 18:38:00,
2013-06-12 14:43:00,85.2,28.9,29.23,NW,315,3.0,4.7,13,-99.99,,,-99.99,WSDL version 342,2013-06-12 18:43:00,
2013-06-12 14:48:00,85.7,29.3,29.23,West,270,3.1,4.7,13,-99.99,,,-99.99,WSDL version 342,2013-06-12 18:48:00,
2013-06-12 14:53:00,85.6,29.2,29.23,West,273,3.3,7.8,13,-99.99,,,-99.99,WSDL version 342,2013-06-12 18:53:00,
2013-06-12 14:58:00,86.3,29.7,29.23,WNW,293,2.7,7.8,13,-99.99,,,-99.99,WSDL version 342,2013-06-12 18:58:00,
2013-06-12 15:03:00,86.4,29.8,29.23,West,262,3.1,5.8,13,-99.99,,,-99.99,WSDL version 342,2013-06-12 19:03:00,
2013-06-12 15:08:00,86.8,30.1,29.23,WNW,289,3.4,4.3,13,-99.99,,,-99.99,WSDL version 342,2013-06-12 19:08:00,
2013-06-12 15:13:00,86.8,30.1,29.23,NW,323,4.1,5.6,13,-99.99,,,-99.99,WSDL version 342,2013-06-12 19:13:00,
2013-06-12 15:18:00,87.8,30.9,29.23,NW,309,2.7,5.6,13,-99.99,,,-99.99,WSDL version 342,2013-06-12 19:18:00,
2013-06-12 15:23:00,88.1,31.1,29.21,West,270,2.6,4.3,13,-99.99,,,-99.99,WSDL version 342,2013-06-12 19:23:00,
2013-06-12 15:28:00,89.0,31.9,29.21,NW,312,2.7,4.3,13,-99.99,,,-99.99,WSDL version 342,2013-06-12 19:28:00,
2013-06-12 15:33:00,88.8,31.7,29.21,WNW,287,3.4,6.0,13,-99.99,,,-99.99,WSDL version 342,2013-06-12 19:33:00,
2013-06-12 15:38:00,88.7,31.6,29.21,WNW,293,3.7,7.2,13,-99.99,,,-99.99,WSDL version 342,2013-06-12 19:38:00,
2013-06-12 15:43:00,88.9,31.8,29.21,NNW,338,2.6,7.2,13,-99.99,,,-99.99,WSDL version 342,2013-06-12 19:43:00,
2013-06-12 15:48:00,89.4,31.2,29.21,NW,313,2.3,7.4,12,-99.99,,,-99.99,WSDL version 342,2013-06-12 19:48:00,
2013-06-12 15:53:00,90.3,30.8,29.21,WSW,244,2.7,7.4,12,-99.99,,,-99.99,WSDL version 342,2013-06-12 19:53:00,
2013-06-12 15:58:00,90.0,31.1,29.21,SW,214,3.4,5.4,13,-99.99,,,-99.99,WSDL version 342,2013-06-12 19:58:00,
2013-06-12 16:03:00,88.2,31.2,29.21,NE,48,2.7,5.4,13,-99.99,,,-99.99,WSDL version 342,2013-06-12 20:03:00,
2013-06-12 16:08:00,88.2,31.2,29.18,WSW,243,2.1,4.0,13,-99.99,,,-99.99,WSDL version 342,2013-06-12 20:08:00,
2013-06-12 16:13:00,88.3,31.3,29.18,West,279,1.5,5.6,13,-99.99,,,-99.99,WSDL version 342,2013-06-12 20:13:00,
2013-06-12 16:18:00,87.6,30.8,29.18,ENE,68,2.6,5.6,13,-99.99,,,-99.99,WSDL version 342,2013-06-12 20:18:00,
2013-06-12 16:23:00,86.3,29.7,29.21,WNW,286,2.7,4.7,13,-99.99,,,-99.99,WSDL version 342,2013-06-12 20:23:00,
2013-06-12 16:28:00,85.0,28.7,29.21,West,270,2.3,4.5,13,-99.99,,,-99.99,WSDL version 342,2013-06-12 20:28:00,
2013-06-12 16:33:00,85.3,28.9,29.21,WNW,295,2.6,4.9,13,-99.99,,,-99.99,WSDL version 342,2013-06-12 20:33:00,
2013-06-12 16:38:00,86.4,29.8,29.21,WNW,302,1.4,4.9,13,-99.99,,,-99.99,WSDL version 342,2013-06-12 20:38:00,
2013-06-12 16:43:00,86.5,29.9,29.21,NW,315,2.5,4.3,13,-99.99,,,-99.99,WSDL version 342,2013-06-12 20:43:00,
2013-06-12 16:48:00,86.1,29.5,29.21,West,270,2.0,4.3,13,-99.99,,,-99.99,WSDL version 342,2013-06-12 20:48:00,
2013-06-12 16:53:00,85.5,29.1,29.21,WNW,293,2.3,3.6,13,-99.99,,,-99.99,WSDL version 342,2013-06-12 20:53:00,
2013-06-12 16:58:00,84.6,28.4,29.21,NW,319,2.1,3.8,13,-99.99,,,-99.99,WSDL version 342,2013-06-12 20:58:00,
2013-06-12 17:03:00,85.3,28.9,29.21,NW,312,2.1,3.8,13,-99.99,,,-99.99,WSDL version 342,2013-06-12 21:03:00,
2013-06-12 17:08:00,86.5,29.9,29.21,SSW,199,1.7,3.8,13,-99.99,,,-99.99,WSDL version 342,2013-06-12 21:08:00,
2013-06-12 17:13:00,86.7,30.1,29.21,WNW,286,1.6,3.4,13,-99.99,,,-99.99,WSDL version 342,2013-06-12 21:13:00,
2013-06-12 17:18:00,86.6,30.0,29.21,WSW,255,1.6,3.4,13,-99.99,,,-99.99,WSDL version 342,2013-06-12 21:18:00,
2013-06-12 17:23:00,87.0,30.3,29.21,NW,326,2.1,3.4,13,-99.99,,,-99.99,WSDL version 342,2013-06-12 21:23:00,
2013-06-12 17:28:00,87.1,30.3,29.21,WSW,244,1.8,3.4,13,-99.99,,,-99.99,WSDL version 342,2013-06-12 21:28:00,
2013-06-12 17:33:00,87.3,30.5,29.21,WNW,293,2.8,5.8,13,-99.99,,,-99.99,WSDL version 342,2013-06-12 21:33:00,
2013-06-12 17:38:00,86.9,30.2,29.21,WNW,296,2.5,5.8,13,-99.99,,,-99.99,WSDL version 342,2013-06-12 21:38:00,
2013-06-12 17:43:00,87.1,30.4,29.21,WNW,289,1.8,4.3,13,-99.99,,,-99.99,WSDL version 342,2013-06-12 21:43:00,
2013-06-12 17:48:00,87.3,30.5,29.21,West,270,2.3,3.6,13,-99.99,,,-99.99,WSDL version 342,2013-06-12 21:48:00,
2013-06-12 17:53:00,87.5,30.7,29.21,WSW,252,1.6,3.6,13,-99.99,,,-99.99,WSDL version 342,2013-06-12 21:53:00,
2013-06-12 17:58:00,87.1,30.3,29.21,East,83,1.1,3.6,13,-99.99,,,-99.99,WSDL version 342,2013-06-12 21:58:00,
2013-06-12 18:03:00,87.1,30.3,29.21,West,276,1.6,3.4,13,-99.99,,,-99.99,WSDL version 342,2013-06-12 22:03:00,
2013-06-12 18:08:00,87.1,30.3,29.21,NNW,347,1.6,3.4,13,-99.99,,,-99.99,WSDL version 342,2013-06-12 22:08:00,
2013-06-12 18:13:00,87.0,30.3,29.21,WSW,251,1.7,3.1,13,-99.99,,,-99.99,WSDL version 342,2013-06-12 22:13:00,
2013-06-12 18:18:00,86.6,30.0,29.21,West,264,1.7,3.1,13,-99.99,,,-99.99,WSDL version 342,2013-06-12 22:18:00,
2013-06-12 18:23:00,86.9,30.2,29.21,NW,318,1.0,3.1,13,-99.99,,,-99.99,WSDL version 342,2013-06-12 22:23:00,
2013-06-12 18:28:00,86.9,30.2,29.21,WSW,248,2.2,3.6,13,-99.99,,,-99.99,WSDL version 342,2013-06-12 22:28:00,
2013-06-12 18:33:00,86.4,29.8,29.21,WNW,299,1.0,3.6,13,-99.99,,,-99.99,WSDL version 342,2013-06-12 22:33:00,
2013-06-12 18:38:00,86.5,29.9,29.21,WNW,287,0.3,2.5,13,-99.99,,,-99.99,WSDL version 342,2013-06-12 22:38:00,
2013-06-12 18:43:00,86.2,29.7,29.21,West,278,0.7,2.5,13,-99.99,,,-99.99,WSDL version 342,2013-06-12 22:43:00,
2013-06-12 18:48:00,85.3,28.9,29.21,WSW,244,1.7,3.1,13,-99.99,,,-99.99,WSDL version 342,2013-06-12 22:48:00,
2013-06-12 18:53:00,84.5,28.8,29.21,West,266,1.8,3.1,14,-99.99,,,-99.99,WSDL version 342,2013-06-12 22:53:00,
2013-06-12 18:58:00,83.7,29.5,29.21,SW,231,1.1,2.5,14,-99.99,,,-99.99,WSDL version 342,2013-06-12 22:58:00,
2013-06-12 19:03:00,83.5,29.3,29.21,WNW,296,0.0,2.7,14,-99.99,,,-99.99,WSDL version 342,2013-06-12 23:03:00,
2013-06-12 19:08:00,83.2,29.1,29.21,North,349,1.1,2.7,14,-99.99,,,-99.99,WSDL version 342,2013-06-12 23:08:00,
2013-06-12 19:13:00,82.9,28.9,29.21,NW,315,0.0,2.0,14,-99.99,,,-99.99,WSDL version 342,2013-06-12 23:13:00,
2013-06-12 19:18:00,82.7,28.7,29.21,NW,315,0.0,1.6,14,-99.99,,,-99.99,WSDL version 342,2013-06-12 23:18:00,
2013-06-12 19:23:00,81.8,28.0,29.21,NNW,330,0.6,1.3,14,-99.99,,,-99.99,WSDL version 342,2013-06-12 23:23:00,
2013-06-12 19:28:00,80.5,27.8,29.21,NW,315,0.0,1.3,15,-99.99,,,-99.99,WSDL version 342,2013-06-12 23:28:00,
2013-06-12 19:33:00,79.3,27.7,29.21,NW,315,0.0,1.3,15,-99.99,,,-99.99,WSDL version 342,2013-06-12 23:33:00,
2013-06-12 19:38:00,78.0,30.0,29.23,NW,315,0.0,1.3,18,-99.99,,,-99.99,WSDL version 342,2013-06-12 23:38:00,
2013-06-12 19:43:00,77.0,30.3,29.23,NW,315,0.0,1.3,18,-99.99,,,-99.99,WSDL version 342,2013-06-12 23:43:00,
2013-06-12 19:48:00,76.1,30.8,29.23,NW,315,0.0,0.0,20,-99.99,,,-99.99,WSDL version 342,2013-06-12 23:48:00,
2013-06-12 19:53:00,75.0,32.0,29.26,NW,315,0.0,0.0,21,-99.99,,,-99.99,WSDL version 342,2013-06-12 23:53:00,
2013-06-12 19:58:00,74.2,31.8,29.26,NW,315,0.0,0.0,21,-99.99,,,-99.99,WSDL version 342,2013-06-12 23:58:00,
2013-06-12 20:03:00,73.3,31.8,29.26,NW,315,0.0,0.0,22,-99.99,,,-99.99,WSDL version 342,2013-06-13 00:03:00,
2013-06-12 20:08:00,72.6,32.2,29.26,NW,315,0.0,0.0,23,-99.99,,,-99.99,WSDL version 342,2013-06-13 00:08:00,
2013-06-12 20:13:00,72.1,32.3,29.26,NNE,28,0.3,2.0,23,-99.99,,,-99.99,WSDL version 342,2013-06-13 00:13:00,
2013-06-12 20:18:00,71.5,33.2,29.26,SW,225,0.0,2.0,25,-99.99,,,-99.99,WSDL version 342,2013-06-13 00:18:00,
2013-06-12 20:23:00,70.7,33.8,29.26,SW,225,0.9,1.6,26,-99.99,,,-99.99,WSDL version 342,2013-06-13 00:23:00,
2013-06-12 20:28:00,70.2,34.7,29.26,SW,225,0.9,1.6,27,-99.99,,,-99.99,WSDL version 342,2013-06-13 00:28:00,
2013-06-12 20:33:00,69.8,34.5,29.26,WNW,293,0.9,1.1,27,-99.99,,,-99.99,WSDL version 342,2013-06-13 00:33:00,
2013-06-12 20:38:00,69.2,35.3,29.26,NW,315,0.0,1.6,30,-99.99,,,-99.99,WSDL version 342,2013-06-13 00:38:00,
2013-06-12 20:45:00,68.7,35.9,29.26,NW,315,0.0,0.0,30,-99.99,,,-99.99,WSDL version 342,2013-06-13 00:45:00,
2013-06-12 20:50:00,68.4,35.5,29.26,NNW,338,0.0,0.0,30,-99.99,,,-99.99,WSDL version 342,2013-06-13 00:50:00,
2013-06-12 20:55:00,68.2,36.2,29.26,WNW,297,0.0,1.3,30,-99.99,,,-99.99,WSDL version 342,2013-06-13 00:55:00,
2013-06-12 21:00:00,67.9,36.8,29.26,West,270,0.0,1.3,32,-99.99,,,-99.99,WSDL version 342,2013-06-13 01:00:00,
2013-06-12 21:06:00,67.6,36.5,29.26,WNW,293,0.0,0.0,32,-99.99,,,-99.99,WSDL version 342,2013-06-13 01:06:00,
2013-06-12 21:11:00,67.3,36.2,29.26,WNW,293,0.0,0.0,32,-99.99,,,-99.99,WSDL version 342,2013-06-13 01:11:00,
2013-06-12 21:16:00,67.1,35.8,29.26,NW,315,0.0,0.0,32,-99.99,,,-99.99,WSDL version 342,2013-06-13 01:16:00,
2013-06-12 21:21:00,67.1,36.3,29.26,NW,315,0.0,0.0,32,-99.99,,,-99.99,WSDL version 342,2013-06-13 01:21:00,
2013-06-12 21:26:00,67.0,36.3,29.26,NNW,331,0.0,0.0,32,-99.99,,,-99.99,WSDL version 342,2013-06-13 01:26:00,
2013-06-12 21:31:00,66.9,36.1,29.26,NNW,338,0.0,0.0,32,-99.99,,,-99.99,WSDL version 342,2013-06-13 01:31:00,
2013-06-12 21:36:00,66.9,36.3,29.26,NW,315,0.0,0.0,33,-99.99,,,-99.99,WSDL version 342,2013-06-13 01:36:00,
2013-06-12 21:41:00,66.7,36.8,29.26,NW,315,0.0,0.0,33,-99.99,,,-99.99,WSDL version 342,2013-06-13 01:41:00,
2013-06-12 21:46:00,66.5,37.0,29.26,NW,315,0.0,1.1,34,-99.99,,,-99.99,WSDL version 342,2013-06-13 01:46:00,
2013-06-12 21:51:00,66.3,37.3,29.26,NW,315,0.0,1.1,34,-99.99,,,-99.99,WSDL version 342,2013-06-13 01:51:00,
2013-06-12 21:56:00,66.0,38.3,29.26,NW,315,0.0,1.1,37,-99.99,,,-99.99,WSDL version 342,2013-06-13 01:56:00,
2013-06-12 22:01:00,65.8,38.1,29.26,WNW,293,0.0,1.1,36,-99.99,,,-99.99,WSDL version 342,2013-06-13 02:01:00,
2013-06-12 22:06:00,65.7,37.5,29.26,NW,309,0.0,0.0,35,-99.99,,,-99.99,WSDL version 342,2013-06-13 02:06:00,
2013-06-12 22:11:00,65.7,37.3,29.26,SW,225,0.0,0.0,35,-99.99,,,-99.99,WSDL version 342,2013-06-13 02:11:00,
2013-06-12 22:16:00,65.7,38.0,29.26,SSW,203,0.0,0.0,36,-99.99,,,-99.99,WSDL version 342,2013-06-13 02:16:00,
2013-06-12 22:21:00,65.7,38.0,29.26,SSW,203,0.0,0.0,36,-99.99,,,-99.99,WSDL version 342,2013-06-13 02:21:00,
2013-06-12 22:26:00,65.6,37.9,29.23,SSE,158,0.0,0.0,36,-99.99,,,-99.99,WSDL version 342,2013-06-13 02:26:00,
2013-06-12 22:31:00,65.5,37.9,29.23,SSE,167,0.0,0.0,36,-99.99,,,-99.99,WSDL version 342,2013-06-13 02:31:00,
2013-06-12 22:36:00,65.4,37.9,29.23,North,360,0.3,1.6,36,-99.99,,,-99.99,WSDL version 342,2013-06-13 02:36:00,
2013-06-12 22:41:00,65.3,38.4,29.26,NNE,23,0.0,1.6,37,-99.99,,,-99.99,WSDL version 342,2013-06-13 02:41:00,
2013-06-12 22:46:00,65.3,38.4,29.26,WSW,248,0.0,1.3,37,-99.99,,,-99.99,WSDL version 342,2013-06-13 02:46:00,
2013-06-12 22:51:00,65.3,38.4,29.26,West,270,0.0,0.0,37,-99.99,,,-99.99,WSDL version 342,2013-06-13 02:51:00,
2013-06-12 22:56:00,65.2,38.4,29.26,West,270,0.0,0.0,37,-99.99,,,-99.99,WSDL version 342,2013-06-13 02:56:00,
2013-06-12 23:01:00,65.0,38.3,29.26,West,270,0.0,0.0,38,-99.99,,,-99.99,WSDL version 342,2013-06-13 03:01:00,
2013-06-12 23:06:00,64.8,38.5,29.26,West,270,0.0,0.0,38,-99.99,,,-99.99,WSDL version 342,2013-06-13 03:06:00,
2013-06-12 23:11:00,64.6,39.6,29.26,West,270,0.0,0.0,41,-99.99,,,-99.99,WSDL version 342,2013-06-13 03:11:00,
2013-06-12 23:16:00,64.4,40.9,29.26,West,270,0.0,0.0,43,-99.99,,,-99.99,WSDL version 342,2013-06-13 03:16:00,
2013-06-12 23:21:00,64.0,41.6,29.26,West,270,0.0,0.0,44,-99.99,,,-99.99,WSDL version 342,2013-06-13 03:21:00,
2013-06-12 23:26:00,63.6,41.9,29.26,West,270,0.0,0.0,45,-99.99,,,-99.99,WSDL version 342,2013-06-13 03:26:00,
2013-06-12 23:31:00,63.3,41.7,29.26,West,270,0.0,0.0,46,-99.99,,,-99.99,WSDL version 342,2013-06-13 03:31:00,
2013-06-12 23:36:00,63.0,41.9,29.26,West,270,0.0,0.0,46,-99.99,,,-99.99,WSDL version 342,2013-06-13 03:36:00,
2013-06-12 23:41:00,62.7,41.8,29.23,NW,315,0.0,0.0,47,-99.99,,,-99.99,WSDL version 342,2013-06-13 03:41:00,
2013-06-12 23:46:00,62.6,42.2,29.23,NW,315,0.0,0.0,48,-99.99,,,-99.99,WSDL version 342,2013-06-13 03:46:00,
2013-06-12 23:51:00,62.3,42.4,29.23,NW,315,0.5,0.9,48,-99.99,,,-99.99,WSDL version 342,2013-06-13 03:51:00,
2013-06-12 23:56:00,62.1,42.4,29.23,NW,315,0.0,0.9,49,-99.99,,,-99.99,WSDL version 342,2013-06-13 03:56:00,